Terminal Aerodrome Forecast
Issued by NWS

Home | Current Version | Previous Version | Text Only | Print | Product List | Glossary On
Versions: 1 2 3 4 5 6 7 8 9 10 11 12 13 14 15 16 17 18 19 20 21 22 23 24 25 26 27 28 29 30 31 32 33 34 35 36 37 38 39 40 41 42 43 44 45
000
FTUS46 KOTX 290905 AAB
TAFPUW
TAF AMD
KPUW 290905Z 2909/3006 10008KT 6SM -SHSN SCT025 OVC050
     FM291500 11015KT P6SM SCT025 BKN050
     FM292000 10017G22KT P6SM BKN050 OVC100
     FM300100 06012KT P6SM SKC=

USA.gov is the U.S. government's official web portal to all federal, state and local government web resources and services.